Weather History for McAlester, OK

Change the Weather History Date:

Friday, December 7, 2012

  Actual Average Record
Temperature  
Mean Temperature 55 °F -  
Max Temperature 66 °F 54 °F 80 °F (1966)
Min Temperature 43 °F 33 °F 10 °F (2013)
Degree Days  
Heating Degree Days 10    
Growing Degree Days 5 (Base 50)    
Moisture  
Dew Point 49 °F    
Average Humidity 87    
Maximum Humidity 100    
Minimum Humidity 56    
Precipitation  
Precipitation 0.00 in - - ()
Sea Level Pressure  
Sea Level Pressure 29.85 in    
Wind  
Wind Speed 3 mph (South)    
Max Wind Speed 9 mph    
Max Gust Speed -    
Visibility 5 miles    
Events Fog    
Averages and records for this station are not official NWS values.
T = Trace of Precipitation, MM = Missing Value Source: NWS Daily Summary

Daily Weather History Graph

Daily Weather History Graph

Search for Another Location

Airport:

Trip Planner

Search our weather history database for the weather conditions in past years. The results will help you decide how hot, cold, wet, or windy it might be!

Date:

Astronomy

Dec. 07, 2012 Rise Set
Actual Time 7:17 AM CST 5:11 PM CST
Civil Twilight 6:50 AM CST 5:39 PM CST
Nautical Twilight 6:18 AM CST 6:11 PM CST
Astronomical Twilight 5:47 AM CST 6:41 PM CST
Moon 12:51 AM CST (12/7) 12:57 PM CST (12/7)
Length of Visible Light 10h 49m
Length of Day
9h 53m
Last Quarter, 38% of the Moon is Illuminated
Dec 7
Last Quarter
Dec 13
New
Dec 19
First Quarter
Dec 28
Full
Jan 4
Last Quarter

Hourly Weather History & Observations

Time (CST) Temp. Windchill Dew Point Humidity Pressure Visibility Wind Dir Wind Speed Gust Speed Precip Events Conditions
12:53 AM 53.1 °F - 48.9 °F 86% 29.85 in 8.0 mi SSE 4.6 mph - N/A   Partly Cloudy
1:53 AM 53.1 °F - 50.0 °F 89% 29.83 in 8.0 mi SE 4.6 mph - N/A   Partly Cloudy
2:53 AM 53.1 °F - 50.0 °F 89% 29.83 in 7.0 mi ESE 3.5 mph - N/A   Partly Cloudy
3:28 AM 53.6 °F - 50.0 °F 88% 29.83 in 7.0 mi SE 5.8 mph - N/A   Mostly Cloudy
3:41 AM 53.6 °F - 50.0 °F 88% 29.83 in 6.0 mi SSE 4.6 mph - N/A   Mostly Cloudy
3:53 AM 53.1 °F - 51.1 °F 93% 29.83 in 7.0 mi SSE 3.5 mph - N/A   Scattered Clouds
4:15 AM 53.6 °F - 51.8 °F 94% 29.84 in 7.0 mi Calm Calm - N/A   Mostly Cloudy
4:44 AM 53.6 °F - 51.8 °F 94% 29.84 in 6.0 mi Calm Calm - N/A   Overcast
4:53 AM 52.0 °F - 50.0 °F 93% 29.83 in 5.0 mi Calm Calm - N/A   Overcast
5:41 AM 55.4 °F - 51.8 °F 88% 29.84 in 8.0 mi SSE 3.5 mph - N/A   Overcast
5:53 AM 55.0 °F - 51.1 °F 86% 29.84 in 8.0 mi South 4.6 mph - N/A   Overcast
6:53 AM 55.0 °F - 52.0 °F 89% 29.85 in 7.0 mi SSE 4.6 mph - N/A   Overcast
7:09 AM 55.4 °F - 51.8 °F 88% 29.86 in 6.0 mi Calm Calm - N/A   Overcast
7:16 AM 55.4 °F - 51.8 °F 88% 29.86 in 6.0 mi SE 3.5 mph - N/A   Overcast
7:34 AM 55.4 °F - 51.8 °F 88% 29.85 in 6.0 mi SE 3.5 mph - N/A   Overcast
7:53 AM 55.0 °F - 52.0 °F 89% 29.85 in 4.0 mi SE 3.5 mph - N/A   Overcast
8:06 AM 55.4 °F - 53.6 °F 94% 29.86 in 3.0 mi Calm Calm - N/A   Overcast
8:24 AM 55.4 °F - 53.6 °F 94% 29.86 in 4.0 mi Calm Calm - N/A   Overcast
8:31 AM 55.4 °F - 53.6 °F 94% 29.86 in 4.0 mi Calm Calm - N/A   Overcast
8:53 AM 55.9 °F - 53.1 °F 90% 29.85 in 5.0 mi Calm Calm - N/A   Overcast
9:53 AM 57.0 °F - 53.1 °F 87% 29.87 in 5.0 mi Calm Calm - N/A   Overcast
10:46 AM 57.2 °F - 53.6 °F 88% 29.86 in 6.0 mi Calm Calm - N/A   Overcast
10:53 AM 57.9 °F - 54.0 °F 87% 29.85 in 6.0 mi SE 3.5 mph - N/A   Overcast
11:24 AM 59.0 °F - 53.6 °F 82% 29.84 in 6.0 mi South 6.9 mph - N/A   Haze
11:53 AM 60.1 °F - 53.1 °F 78% 29.82 in 8.0 mi Variable 5.8 mph - N/A   Overcast
12:53 PM 62.1 °F - 52.0 °F 70% 29.79 in 9.0 mi South 6.9 mph - N/A   Mostly Cloudy
1:03 PM 62.6 °F - 51.8 °F 68% 29.80 in 9.0 mi SSW 8.1 mph - N/A   Mostly Cloudy
1:14 PM 62.6 °F - 51.8 °F 68% 29.80 in 9.0 mi SSW 9.2 mph - N/A   Mostly Cloudy
1:25 PM 64.4 °F - 51.8 °F 64% 29.79 in 10.0 mi Variable 5.8 mph - N/A   Scattered Clouds
1:42 PM 64.4 °F - 51.8 °F 64% 29.78 in 10.0 mi South 8.1 mph - N/A   Mostly Cloudy
1:51 PM 64.4 °F - 50.0 °F 59% 29.78 in 10.0 mi SW 8.1 mph - N/A   Scattered Clouds
1:53 PM 64.0 °F - 50.0 °F 60% 29.77 in 10.0 mi SW 8.1 mph - N/A   Scattered Clouds
2:53 PM 66.0 °F - 50.0 °F 56% 29.77 in 10.0 mi SW 8.1 mph - N/A   Clear
3:53 PM 64.9 °F - 48.9 °F 56% 29.77 in 10.0 mi WSW 4.6 mph - N/A   Scattered Clouds
4:53 PM 62.1 °F - 48.9 °F 62% 29.79 in 10.0 mi NW 4.6 mph - N/A   Clear
5:53 PM 57.0 °F - 52.0 °F 83% 29.81 in 7.0 mi North 4.6 mph - N/A   Partly Cloudy
6:53 PM 53.1 °F - 50.0 °F 89% 29.84 in 6.0 mi Calm Calm - N/A   Scattered Clouds
7:32 PM 51.8 °F - 48.2 °F 88% 29.85 in 5.0 mi Calm Calm - N/A   Mostly Cloudy
7:53 PM 50.0 °F - 48.0 °F 93% 29.85 in 4.0 mi Calm Calm - N/A   Mostly Cloudy
8:22 PM 48.2 °F - 46.4 °F 93% 29.86 in 3.0 mi Calm Calm - N/A   Scattered Clouds
8:29 PM 48.2 °F - 46.4 °F 93% 29.86 in 2.5 mi Calm Calm - N/A   Scattered Clouds
8:50 PM 48.2 °F - 46.4 °F 93% 29.87 in 1.5 mi Calm Calm - N/A   Scattered Clouds
8:53 PM 46.9 °F - 46.0 °F 97% 29.86 in 1.5 mi Calm Calm - N/A   Scattered Clouds
9:03 PM 46.4 °F - 44.6 °F 93% 29.87 in 0.8 mi Calm Calm - N/A   Mostly Cloudy
9:10 PM 46.4 °F - 44.6 °F 93% 29.87 in 0.2 mi Calm Calm - N/A Fog Fog
9:40 PM 46.4 °F - 44.6 °F 93% 29.88 in 0.5 mi Calm Calm - N/A Fog Fog
9:50 PM 46.4 °F - 44.6 °F 93% 29.88 in 1.0 mi Calm Calm - N/A   Mostly Cloudy
9:53 PM 45.0 °F - 44.1 °F 97% 29.88 in 1.8 mi Calm Calm - N/A   Mostly Cloudy
10:00 PM 48.2 °F - 44.6 °F 87% 29.89 in 2.0 mi Calm Calm - N/A   Mostly Cloudy
10:11 PM 46.4 °F - 46.4 °F 100% 29.89 in 4.0 mi Calm Calm - N/A   Mostly Cloudy
10:23 PM 48.2 °F - 46.4 °F 93% 29.89 in 1.8 mi Calm Calm - N/A   Mostly Cloudy
10:26 PM 48.2 °F - 46.4 °F 93% 29.89 in 0.8 mi Calm Calm - N/A   Scattered Clouds
10:34 PM 46.4 °F - 46.4 °F 100% 29.89 in 0.5 mi Calm Calm - N/A Fog Fog
10:43 PM 44.6 °F - 44.6 °F 100% 29.90 in 1.0 mi Calm Calm - N/A   Scattered Clouds
10:53 PM 45.0 °F - 44.1 °F 97% 29.90 in 0.8 mi Calm Calm - N/A   Scattered Clouds
11:00 PM 44.6 °F - 42.8 °F 93% 29.90 in 0.2 mi Calm Calm - N/A Fog Fog
11:09 PM 46.4 °F - 44.6 °F 93% 29.90 in 0.2 mi Calm Calm - N/A Fog Fog
11:23 PM 44.6 °F - 44.6 °F 100% 29.90 in 0.2 mi Calm Calm - N/A Fog Fog
11:34 PM 46.4 °F - 44.6 °F 93% 29.90 in 0.2 mi Calm Calm - N/A Fog Fog
11:53 PM 43.0 °F 41.3 °F 42.1 °F 97% 29.90 in 0.5 mi NW 3.5 mph - N/A Fog Fog